Home   Weather   Lørenskog   Past weeks

Flag for Norway Past Weather in Lørenskog, Norway — Yesterday and Last 2 Weeks

Now
44 °F

Quite cool.


Feels Like: 44 °F
Forecast: 37 / 54 °F
Wind: 2 mph from Northeast

Location: Oslo-Blindern

Current Time: Oct 1, 2016 at 10:43:08 PM

Latest Report: Oct 1, 2016 at 10:00 PM


Visibility: 31 mi

Pressure: 29.80 "Hg

Humidity: 86%

Dew Point: 40 °F

Location of LørenskogLocation

Past Weather in Lørenskog — Graph

°F

Lørenskog Temperature Yesterday

Maximum temperature yesterday: 56 °F (at 1:00 PM)
Minimum temperature yesterday: 47 °F (at 8:00 AM)
Average temperature yesterday: 52 °F

High & Low Weather Summary for the Past Weeks

 TemperatureHumidityPressure
High70 °F (Sep 20, 4:00 PM)98% (Sep 29, 8:00 AM)30.27 "Hg (Sep 29, 8:00 AM)
Low38 °F (Oct 1, 8:00 AM)45% (Sep 29, 3:00 PM)29.03 "Hg (Sep 29, 6:00 PM)
Average56 °F79%29.95 "Hg
* Reported Sep 16 9:00 PM — Oct 1 9:00 PM, Lørenskog, Weather by CustomWeather, © 2016

Note: Actual official high and low records may vary slightly from our data, if they occured in-between our weather recording intervals... More about our weather records

Advertising

Lørenskog Weather History for the Previous 24 Hours

Scroll right to see more
 ConditionsComfort  
Time TempWeatherWind HumidityBarometerVisibility
9:00 PM
Sat, Oct 1
45 °FCool.3 mph84%29.80 "Hg31 mi
8:00 PM47 °FPassing clouds.1 mph76%29.79 "Hg47 mi
7:00 PM50 °FCool.2 mph63%29.77 "Hg31 mi
6:00 PM55 °FCool.3 mph54%29.75 "Hg31 mi
5:00 PM56 °FPartly sunny.2 mph46%29.74 "Hg47 mi
4:00 PM59 °FRefreshingly cool.2 mph45%29.74 "Hg28 mi
3:00 PM59 °FRefreshingly cool.2 mph49%29.74 "Hg25 mi
2:00 PM58 °FPartly sunny.1 mph47%29.75 "Hg47 mi
1:00 PM56 °FRefreshingly cool.2 mph50%29.74 "Hg28 mi
12:00 PM55 °FRefreshingly cool.1 mph52%29.73 "Hg28 mi
11:00 AM53 °FPassing clouds.2 mph60%29.72 "Hg47 mi
10:00 AM50 °FCool.1 mph63%29.70 "Hg28 mi
9:00 AM46 °FCool.No wind75%29.67 "Hg31 mi
8:00 AM38 °FPassing clouds.1 mph90%29.66 "Hg47 mi
7:00 AM38 °FChilly.1 mph88%29.64 "HgN/A
6:00 AM39 °FChilly.1 mph86%29.62 "Hg31 mi
5:00 AM40 °FQuite cool.1 mph83%29.60 "Hg31 mi
4:00 AM40 °FChilly.1 mph84%29.58 "Hg31 mi
3:00 AM43 °FQuite cool.1 mph78%29.57 "Hg31 mi
2:00 AM44 °FQuite cool.1 mph73%29.55 "Hg31 mi
1:00 AM46 °FCool.1 mph68%29.53 "Hg31 mi
12:00 AM48 °FCool.2 mph64%29.50 "Hg31 mi
11:00 PM
Fri, Sep 30
49 °FCool.5 mph62%29.47 "Hg31 mi
10:00 PM50 °FCool.7 mph60%29.44 "Hg31 mi
Weather by CustomWeather, © 2016

See weather overviewHow to use our weather pages